This is the latest recevied weather packets stored in our database for station/object K1TTC. If no packets are shown the sender has not sent any weather packets the latest 1 day(s).
| Time | Temp. | Humidity | Pressure | Rain* | Wind** | Luminosity | Snow |
|---|---|---|---|---|---|---|---|
| 1836274738 | 13.33° C | 55% | 1022.3 hPa | 0 mm | 0 m/s | 0 W/m² | - |
| 1836274579 | 13.33° C | 55% | 1022.4 hPa | 0 mm | 0 m/s | 0 W/m² | - |
| 1836274129 | 13.89° C | 55% | 1022.4 hPa | 0 mm | 0 m/s | 0 W/m² | - |
| 1778047424 | 18.33° C | 55% | 1010.5 hPa | 0 mm | 2.68 m/s, 219° | 0 W/m² | - |
| 1778046823 | 18.33° C | 55% | 1010.5 hPa | 0 mm | 2.24 m/s, 177° | 0 W/m² | - |
| 1778046224 | 18.33° C | 55% | 1010.7 hPa | 0 mm | 2.68 m/s, 214° | 0 W/m² | - |
| 1778045623 | 17.78° C | 55% | 1010.6 hPa | 0 mm | 2.24 m/s, 186° | 0 W/m² | - |
| 1778045023 | 17.78° C | 55% | 1010.7 hPa | 0 mm | 2.24 m/s, 185° | 0 W/m² | - |
| 1778044423 | 17.78° C | 55% | 1010.8 hPa | 0 mm | 1.79 m/s, 179° | 0 W/m² | - |
| 1778043824 | 17.78° C | 55% | 1010.8 hPa | 0 mm | 2.68 m/s, 201° | 0 W/m² | - |
| 1778043223 | 17.78° C | 55% | 1011 hPa | 0 mm | 2.68 m/s, 227° | 0 W/m² | - |
| 1778042624 | 17.78° C | 55% | 1011 hPa | 0 mm | 2.24 m/s, 213° | 0 W/m² | - |
| 1778042022 | 17.78° C | 54% | 1011 hPa | 0 mm | 2.68 m/s, 186° | 0 W/m² | - |
| 1778041424 | 17.78° C | 54% | 1011 hPa | 0 mm | 2.24 m/s, 187° | 0 W/m² | - |
| 1778040822 | 18.33° C | 54% | 1011 hPa | 0 mm | 2.68 m/s, 206° | 0 W/m² | - |
| 1778040224 | 18.33° C | 54% | 1011 hPa | 0 mm | 2.68 m/s, 209° | 0 W/m² | - |
| 1778039622 | 18.33° C | 53% | 1011 hPa | 0 mm | 2.24 m/s, 197° | 0 W/m² | - |
| 1778039023 | 18.33° C | 53% | 1010.9 hPa | 0 mm | 2.24 m/s, 176° | 0 W/m² | - |
| 1778038421 | 18.33° C | 52% | 1010.8 hPa | 0 mm | 3.13 m/s, 204° | 0 W/m² | - |
| 1778037819 | 18.33° C | 52% | 1010.9 hPa | 0 mm | 2.68 m/s, 243° | 0 W/m² | - |
| 1778037220 | 18.89° C | 51% | 1010.8 hPa | 0 mm | 2.24 m/s, 167° | 0 W/m² | - |
| 1778036619 | 18.89° C | 51% | 1010.8 hPa | 0 mm | 2.24 m/s, 124° | 0 W/m² | - |
| 1778036020 | 18.89° C | 50% | 1010.9 hPa | 0 mm | 2.68 m/s, 155° | 0 W/m² | - |
| 1778035417 | 19.44° C | 49% | 1010.9 hPa | 0 mm | 2.68 m/s, 185° | 0 W/m² | - |
| 1778034817 | 19.44° C | 49% | 1010.8 hPa | 0 mm | 2.68 m/s, 176° | 0 W/m² | - |
* Rain latest hour (hover to see other rain measurements)
** Current wind speed in m/s (hover to see current wind gust speed)